Weather History for KGOV - September, 2013

Change the Weather History Date:

Monday, September 30, 2013

  Actual Average (KHTL) Record (KHTL)
Temperature  
Mean Temperature 50 °F 52 °F  
Max Temperature 68 °F 63 °F 87 °F (1922)
Min Temperature 33 °F 41 °F 19 °F (1918)
Degree Days  
Heating Degree Days 14 14  
Month to date heating degree days 254  
Since 1 July heating degree days 381  
Cooling Degree Days 0 0  
Month to date cooling degree days 20  
Year to date cooling degree days 285  
Moisture  
Dew Point 43 °F    
Average Humidity 83    
Maximum Humidity 100    
Minimum Humidity 42    
Precipitation  
Precipitation 0.00 in 0.10 in 2.07 in (1921)
Month to date precipitation 3.10  
Year to date precipitation 22.22  
Sea Level Pressure  
Sea Level Pressure 29.98 in    
Wind  
Wind Speed 2 mph (SSW)    
Max Wind Speed 9 mph    
Max Gust Speed -    
Visibility 7 miles    
Events Fog    
T = Trace of Precipitation, MM = Missing Value Source: NWS Daily Summary

Daily Weather History Graph

Daily Weather History Graph

Search for Another Location

Airport or City:

Trip Planner

Search our weather history database for the weather conditions in past years. The results will help you decide how hot, cold, wet, or windy it might be!

Date:

Astronomy

Sep. 30, 2013 Rise Set
Actual Time 7:35 AM EDT 7:20 PM EDT
Civil Twilight 7:06 AM EDT 7:49 PM EDT
Nautical Twilight 6:32 AM EDT 8:23 PM EDT
Astronomical Twilight 5:58 AM EDT 8:58 PM EDT
Moon 3:02 AM EDT (9/30) 4:59 PM EDT (9/30)
Length of Visible Light 12h 43m
Length of Day
11h 45m
Waning Crescent, 19% of the Moon is Illuminated
Sep 30
Waning Crescent
Oct 4
New
Oct 11
First Quarter
Oct 18
Full
Oct 26
Last Quarter

Hourly Weather History & Observations

Time (EDT) Temp. Windchill Dew Point Humidity Pressure Visibility Wind Dir Wind Speed Gust Speed Precip Events Conditions
12:14 AM 37.4 °F - 37.4 °F 100% 30.03 in 4.0 mi Calm Calm - N/A   Clear
12:35 AM 36.0 °F 32.1 °F 36.0 °F 100% 30.03 in 10.0 mi NNW 4.6 mph - N/A   Clear
12:54 AM 37.6 °F - 37.6 °F 100% 30.03 in 10.0 mi Calm Calm - N/A   Clear
1:15 AM 36.1 °F - 36.1 °F 100% 30.03 in 10.0 mi Calm Calm - N/A   Clear
1:35 AM 35.8 °F - 35.8 °F 100% 30.03 in 10.0 mi Calm Calm - N/A   Clear
1:55 AM 35.8 °F - 35.8 °F 100% 30.03 in 10.0 mi Calm Calm - N/A   Clear
2:15 AM 35.1 °F - 35.1 °F 100% 30.03 in 3.0 mi Calm Calm - N/A   Clear
2:34 AM 35.8 °F - 35.8 °F 100% 30.03 in 1.5 mi Calm Calm - N/A   Mist
2:55 AM 34.9 °F - 34.9 °F 100% 30.02 in 0.8 mi Calm Calm - N/A   Mist
3:14 AM 34.3 °F - 34.3 °F 100% 30.02 in 0.8 mi Calm Calm - N/A   Mist
3:35 AM 33.3 °F - 33.3 °F 100% 30.02 in 1.5 mi Calm Calm - N/A   Mist
3:55 AM 33.3 °F - 33.3 °F 100% 30.01 in 10.0 mi Calm Calm - N/A   Clear
4:14 AM 33.3 °F - 33.3 °F 100% 30.02 in 4.0 mi Calm Calm - N/A   Clear
4:35 AM 33.3 °F - 33.3 °F 100% 30.01 in 7.0 mi Calm Calm - N/A   Clear
4:54 AM 33.3 °F - 33.3 °F 100% 30.02 in 10.0 mi Calm Calm - N/A   Clear
5:14 AM 33.3 °F - 33.3 °F 100% 30.01 in 1.8 mi Calm Calm - N/A   Scattered Clouds
5:35 AM 33.3 °F - 32.9 °F 99% 30.01 in 10.0 mi Calm Calm - N/A   Mostly Cloudy
5:54 AM 33.3 °F - 32.5 °F 97% 30.02 in 7.0 mi Calm Calm - N/A   Overcast
6:15 AM 33.3 °F - 33.3 °F 100% 30.02 in 0.5 mi Calm Calm - N/A Fog Fog
6:35 AM 35.8 °F - 35.8 °F 100% 30.03 in 0.5 mi Calm Calm - N/A Fog Fog
6:54 AM 35.8 °F - 35.8 °F 100% 30.04 in 0.2 mi Calm Calm - N/A Fog Fog
7:15 AM 36.1 °F - 36.1 °F 100% 30.03 in 0.2 mi Calm Calm - N/A Fog Fog
7:34 AM 38.3 °F - 38.3 °F 100% 30.03 in 0.2 mi Calm Calm - N/A Fog Fog
7:55 AM 38.3 °F - 38.3 °F 100% 30.03 in 0.5 mi Calm Calm - N/A Fog Fog
8:15 AM 38.3 °F - 38.3 °F 100% 30.03 in 0.2 mi Calm Calm - N/A Fog Fog
8:34 AM 38.3 °F - 38.3 °F 100% 30.03 in 0.2 mi Calm Calm - N/A Fog Fog
8:55 AM 38.3 °F - 38.3 °F 100% 30.02 in 0.2 mi Calm Calm - N/A Fog Fog
9:14 AM 39.9 °F - 39.9 °F 100% 30.01 in 0.2 mi Calm Calm - N/A Fog Fog
9:34 AM 41.4 °F - 41.4 °F 100% 30.01 in 0.2 mi Calm Calm - N/A Fog Fog
9:55 AM 43.9 °F - 43.9 °F 100% 30.01 in 0.2 mi Calm Calm - N/A Fog Fog
10:14 AM 45.9 °F - 45.9 °F 100% 30.00 in 0.2 mi Calm Calm - N/A Fog Fog
10:35 AM 48.4 °F - 48.4 °F 100% 30.00 in 0.2 mi Calm Calm - N/A Fog Fog
10:54 AM 49.6 °F - 49.6 °F 100% 29.99 in 0.2 mi Calm Calm - N/A Fog Fog
11:15 AM 53.6 °F - 53.6 °F 100% 29.99 in 7.0 mi Calm Calm - N/A   Mostly Cloudy
11:35 AM 56.7 °F - 54.1 °F 91% 29.99 in 10.0 mi Calm Calm - N/A   Clear
11:54 AM 59.4 °F - 49.6 °F 70% 29.98 in 10.0 mi SSE 9.2 mph - N/A   Clear
12:15 PM 59.5 °F - 48.9 °F 68% 29.99 in 10.0 mi South 6.9 mph - N/A   Clear
12:34 PM 61.5 °F - 48.0 °F 61% 29.99 in 10.0 mi SW 5.8 mph - N/A   Clear
12:55 PM 64.2 °F - 49.8 °F 59% 29.99 in 10.0 mi SSW 3.5 mph - N/A   Scattered Clouds
1:15 PM 62.1 °F - 50.5 °F 66% 29.99 in 10.0 mi South 9.2 mph - N/A   Mostly Cloudy
1:34 PM 61.7 °F - 51.4 °F 69% 29.99 in 10.0 mi SSW 8.1 mph - N/A   Scattered Clouds
1:55 PM 62.2 °F - 49.6 °F 63% 29.96 in 10.0 mi South 6.9 mph - N/A   Clear
2:14 PM 63.7 °F - 48.6 °F 58% 29.94 in 10.0 mi South 8.1 mph - N/A   Clear
2:35 PM 66.6 °F - 49.1 °F 53% 29.96 in 10.0 mi SW 4.6 mph - N/A   Scattered Clouds
2:55 PM 63.9 °F - 47.8 °F 56% 29.95 in 10.0 mi Calm Calm - N/A   Scattered Clouds
3:14 PM 68.5 °F - 48.2 °F 48% 29.95 in 10.0 mi SW 5.8 mph - N/A   Scattered Clouds
3:35 PM 68.5 °F - 45.3 °F 43% 29.94 in 10.0 mi WSW 4.6 mph - N/A   Clear
3:54 PM 68.5 °F - 46.6 °F 45% 29.93 in 10.0 mi SSW 8.1 mph - N/A   Clear
4:15 PM 68.5 °F - 44.8 °F 42% 29.93 in 10.0 mi SSW 8.1 mph - N/A   Clear
4:35 PM 68.5 °F - 45.9 °F 44% 29.92 in 10.0 mi SW 4.6 mph - N/A   Clear
4:54 PM 68.5 °F - 47.8 °F 48% 29.91 in 10.0 mi South 6.9 mph - N/A   Clear
5:15 PM 68.5 °F - 48.0 °F 48% 29.90 in 10.0 mi SSW 5.8 mph - N/A   Clear
5:34 PM 67.3 °F - 47.3 °F 49% 29.91 in 10.0 mi South 8.1 mph - N/A   Clear
5:55 PM 66.2 °F - 46.0 °F 48% 29.92 in 10.0 mi South 8.1 mph - N/A   Clear
6:14 PM 66.2 °F - 46.6 °F 49% 29.91 in 10.0 mi South 4.6 mph - N/A   Clear
6:34 PM 63.5 °F - 45.5 °F 52% 29.91 in 10.0 mi South 4.6 mph - N/A   Clear
6:55 PM 61.3 °F - 46.0 °F 57% 29.91 in 10.0 mi South 3.5 mph - N/A   Clear
7:14 PM 60.3 °F - 46.4 °F 60% 29.91 in 10.0 mi South 3.5 mph - N/A   Clear
7:35 PM 58.8 °F - 45.9 °F 62% 29.91 in 10.0 mi Calm Calm - N/A   Clear
7:54 PM 55.9 °F - 46.8 °F 71% 29.91 in 10.0 mi South 3.5 mph - N/A   Clear
8:15 PM 55.4 °F - 48.2 °F 77% 29.91 in 10.0 mi South 3.5 mph - N/A   Clear
8:34 PM 53.6 °F - 47.3 °F 79% 29.91 in 10.0 mi Calm Calm - N/A   Clear
8:54 PM 53.6 °F - 50.0 °F 88% 29.92 in 10.0 mi Calm Calm - N/A   Clear
9:15 PM 50.5 °F - 48.2 °F 92% 29.93 in 7.0 mi Calm Calm - N/A   Clear
9:34 PM 48.4 °F - 47.1 °F 95% 29.93 in 4.0 mi Calm Calm - N/A   Clear
9:55 PM 48.7 °F - 48.0 °F 97% 29.92 in 5.0 mi Calm Calm - N/A   Clear
10:14 PM 48.4 °F - 46.8 °F 94% 29.93 in 10.0 mi Calm Calm - N/A   Clear
10:35 PM 48.4 °F - 46.6 °F 93% 29.92 in 10.0 mi Calm Calm - N/A   Clear
10:54 PM 48.4 °F - 46.8 °F 94% 29.92 in 10.0 mi Calm Calm - N/A   Clear
11:14 PM 48.4 °F - 47.3 °F 96% 29.92 in 10.0 mi Calm Calm - N/A   Clear
11:35 PM 48.4 °F - 47.3 °F 96% 29.92 in 10.0 mi Calm Calm - N/A   Clear
11:54 PM 46.6 °F - 46.2 °F 99% 29.91 in 10.0 mi Calm Calm - N/A   Clear